Regional Weather Roundup
Issued by NWS

Home | Current Version | Previous Version | Graphics & Text | Print | Product List | Glossary On
Versions: 1 2 3 4 5 6 7 8 9 10 11 12 13 14 15 16 17 18 19 20 21 22 23 24 25 26 27 28 29 30 31 32 33 34 35 36 37 38 39 40 41 42 43 44 45 46 47 48 49 50
000
ASUS45 KBOU 181410
RWRCO

WEATHER ROUNDUP FOR COLORADO
NATIONAL WEATHER SERVICE DENVER/BOULDER CO
700 AM MST SUN FEB 18 2018

NOTE: "FAIR" INDICATES FEW OR NO CLOUDS BELOW 12000 FEET WITH NO
SIGNIFICANT WEATHER AND/OR OBSTRUCTIONS TO VISIBILITY.

COZ001>005-013-030-031-181500-
...NORTHWEST COLORADO...

CITY           SKY/WX    TMP DP  RH WIND       PRES   REMARKS
CRAIG          FAIR      39  15  37 SW13G26   29.66F
HAYDEN         FAIR      39  11  31 VRB5      29.69F
MEEKER         FAIR      41  14  33 W5        29.71F
RANGELY        FAIR      24  17  73 E5        29.69F WCI  19
RABBIT EARS PA FAIR      23  12  63 SW12G24   29.74S WCI  12
STEAMBOAT SPGS FAIR      21  12  68 CALM      29.70F
WALDEN         FAIR      28  10  47 SW23G30   29.66F WCI  14
$$

COZ006>008-011-181500-
...WEST CENTRAL VALLEYS...

CITY           SKY/WX    TMP DP  RH WIND       PRES   REMARKS
GRAND JUNCTION FAIR      28  21  75 E6        29.79F WCI  22
MONTROSE       FAIR      28  16  60 SE13      29.88F WCI  17
EAGLE          FAIR      24  14  65 E14       29.79F WCI  12
RIFLE          FAIR      21  17  84 E5        29.80F WCI  15
DELTA          FAIR      26  15  63 CALM      29.86F
NUCLA          FAIR      36  18  48 S7        29.92F
$$

COZ017>023-064>068-181500-
...SOUTHWEST COLORADO...

CITY           SKY/WX    TMP DP  RH WIND       PRES   REMARKS
DURANGO        FAIR      19  17  92 E3        29.99S
CORTEZ         FAIR      20  15  81 E6        29.96F WCI  12
PAGOSA SPRINGS FAIR      19  14  81 CALM      30.00F
TELLURIDE      FAIR      32   9  37 CALM      29.93F
WOLF CREEK PAS FAIR      14  10  85 SW23G30   30.02S WCI  -5
$$

COZ009-010-012-014-032>034-037-058>063-181500-
...CENTRAL COLORADO...

CITY           SKY/WX    TMP DP  RH WIND       PRES   REMARKS
ASPEN          FAIR      20  10  65 SW8       29.79F WCI  10
BUENA VISTA    FAIR      30   6  36 S5        29.81F WCI  25
COPPER MTN     FAIR      25   3  39 SW18G33   29.83F HAZE    WCI  11
BERTHOUD PASS  FAIR      19   9  63 W48G86    29.71S WCI  -3
COTTONWOOD PAS FAIR      36   0  21 SW8G24    29.81F
GUNNISON       FAIR      10   6  84 CALM      29.94F
GRANBY         FAIR      31  11  43 W16       29.76F WCI  20
KREMMLING      FAIR      37  14  38 W16G25    29.75F
LEADVILLE      FAIR      24   0  35 NE7       29.80F WCI  16
MONARCH PASS   FAIR      18   1  49 W32G40    29.98F WCI  -3
SALIDA         FAIR      34  10  36 W13G18    29.89F WCI  25
SUNLIGHT       FAIR      19  10  68 SW22G33     N/A  WCI   3
WILKERSON PASS FAIR      23  -4  30 SW23G37   29.79F WCI   7
$$

COZ069>075-181500-
...SAN LUIS VALLEY/SANGRE DE CRISTO MOUNTAINS...

CITY           SKY/WX    TMP DP  RH WIND       PRES   REMARKS
ALAMOSA        FAIR      29  18  63 SE7       29.92F WCI  22
DEL NORTE      FAIR      31  11  44 W9        29.91F WCI  23
LA VETA PASS   FAIR      27  16  63 SW31G47   29.94S WCI  10
SAGUACHE       FAIR      14   3  62 N8        29.93F WCI   3
$$

COZ035-036-038>040-181500-
...NORTHERN COLORADO FRONT RANGE...

CITY           SKY/WX    TMP DP  RH WIND       PRES   REMARKS
DENVER INTL AP MOCLDY    44   9  23 S20       29.55F
AURORA         PTCLDY    45   6  20 S6        29.57F
FRONT RANGE AP FAIR      41  12  30 S16       29.58F
ERIE MUNI ARPT FAIR      49   6  17 CALM      29.58F
BOULDER MUN AP FAIR      54   9  16 SW18G32   29.48F
CENTENNIAL     FAIR      43   7  22 S8        29.58S
BROOMFIELD     PTCLDY    52   7  16 S13       29.53F
FORT COLLINS   FAIR      53  11  18 W16G28    29.51F
LONGMONT       FAIR      57   7  13 W9G28     29.53S
$$

COZ041-046-047-076>085-087-088-181500-
...PIKES PEAK/PALMER DIVIDE AND SOUTHERN FOOTHILLS...

CITY           SKY/WX    TMP DP  RH WIND       PRES   REMARKS
COLO. SPRINGS  MOCLDY    44   8  23 E6        29.64F
A. F. ACADEMY  FAIR      49  -2  12 SW12      29.63F
SCHRIEVER AFB  NOT AVBL
CHEYENNE MTN   FAIR      44   1  16 CALM      29.59F
ELLICOTT         N/A    N/A N/A N/A SW28G36   29.62F
FALCON         FAIR      43   3  19 W3G17     29.66F
FORT CARSON    FAIR      48   6  18 SW12      29.65S
LIMON          FAIR      33  13  43 MISG      29.66S
MONUMENT HILL  FAIR      41   3  20 SW36G48   29.61F
CANON CITY     CLEAR     46  12  25 W12       29.68S
WALSENBURG     NOT AVBL
TRINIDAD       FAIR      51   8  17 W21G29    29.74F
$$

COZ042>045-048>051-090-091-181500-
...NORTHEAST COLORADO...

CITY           SKY/WX    TMP DP  RH WIND       PRES   REMARKS
GREELEY ARPT   FAIR      35  16  45 SE8       29.53F WCI  29
AKRON          FAIR      45  15  30 SW18      29.56F
BURLINGTON     FAIR      33  21  61 SW14      29.62F WCI  23
WRAY           FAIR      34  21  60 SW7       29.56F WCI  28
YUMA           NOT AVBL
STERLING       FAIR      30  19  64 S6        29.54F WCI  24
HOLYOKE        FAIR      32  25  74 S13       29.55F WCI  22
FORT MORGAN    FAIR      37  11  34 W5        29.57F
$$

COZ086-089-092>099-181500-
...SOUTHEAST COLORADO...

CITY           SKY/WX    TMP DP  RH WIND       PRES   REMARKS
PUEBLO         FAIR      30  21  69 CALM      29.67F
LA JUNTA       FAIR      45  13  27 W13       29.66F
LAMAR          FAIR      29  18  63 SW5       29.64F WCI  24
SPRINGFIELD      N/A     40  24  53 SW16G25   29.70F
$$



USA.gov is the U.S. government's official web portal to all federal, state and local government web resources and services.